星链-5830 (STARLINK-5830 )

导读

STARLINK-5830是美国太空探索技术公司(SpaceX)研制的星链(Starlink)系列卫星之一,于2023年6月22日发射升空,属于星链互联网卫星项目的组网卫星。该卫星旨在为全球提供高速低延迟互联网覆盖,是SpaceX推进星链大规模组网部署进程中新纳入的一颗卫星,助力构建全球卫星互联网星座。

基本信息
目录编号:
57065
目录名称:
STARLINK-5830
国际标识:
2023-088T
轨道中心:
EARTH
卫星名称:
星链-5830
卫星全名:
星链-5830 (STARLINK-5830 )
卫星状态:
在轨 (已飞行1170 天)
发射日期:
2023-06-22 UTC
国别 :
美国 (US)
星等 :
--
轨道信息
数据来源 国际轨道数据 AOE轨道数据
星历时间 2026-09-04T12:59:30+0800
15小时前
查看轨道信息
2026-09-03T23:00:00+0800
1天前
查看轨道信息
半长轴 6861.175km 6861.181km
偏心率 0.0000998 0.0000751
轨道倾角 43.003° 43.004°
近地点辐角 271.664° 290.146°
升交点赤经 185.931° 189.224°
平近点角 88.410° 100.137°
近地点 482.353km 482.528km
远地点 483.723km 483.56km
周期 94.267分钟 94.267分钟
每日圈数 15.275839 15.27582
详细信息
固有亮度:
5
最大亮度:
2.4
卫星平台:
Starlink v1.5
覆盖范围:
全球
运营商:
太空探索技术公司
运营商所在国:
美国
制造商(研发单位):
太空探索技术公司
制造商所在国:
美国
使用方式:
暂无
卫星简介
星链(Starlink)计划是由太空探索技术公司(SpaceX)提出的一个巨型低轨卫星互联网星座项目,计划在2019年至2024年间在太空搭建由约1.2万颗卫星组成的“星链”网络,其中1584颗将部署在地球上空550千米处的近地轨道,并从2020年开始工作。该卫星仍在工作。
2D轨道图
3D轨道图
轨道高度分析图
轨道倾角分析图
轨道综合分析图
查看轨道综合分析图
交会数据列表
事件ID 空间交会对象 最接近时刻(TCA) 交会距离 交会风险概率(CRP) 交会风险指数(CRI) 操作
CDM_260901-142705-308805-706521
2026-09-01T
14:27:00+0000
2.077 km
极远距离
2.481928E-6 低风险 0.43
CDM_260907-035405-706505-940721
2026-09-07T
03:54:18+0000
2.855 km
极远距离
7.77221E-7 极低风险 0.33